Location: Unspecified
(0.0000°N, 0.0000°E)
Time: 23:01:50
(UTC+00:00)

Courier 1B Rocket - Visible Passes

Search period start: 30 July 2015 00:00
Search period end: 09 August 2015 00:00
Orbit: 921 x 1202 km, 28.2° (Epoch: 30 July)

Date Brightness Start Highest point End Pass type
(mag) Time Alt. Az. Time Alt. Az. Time Alt. Az.
30 Jul 7.5 02:54:11 14° ESE 02:54:11 14° ESE 02:55:23 10° ESE visible
30 Jul 5.1 04:40:34 32° SW 04:44:04 74° SSE 04:50:38 10° ENE visible
30 Jul 7.3 19:56:38 10° SW 20:00:40 15° SSW 20:02:50 13° S visible
31 Jul 5.7 03:43:30 49° SE 03:43:30 49° SE 03:49:28 10° ENE visible
31 Jul 5.6 05:29:54 10° WSW 05:36:33 47° NNW 05:42:44 10° NE visible
31 Jul 7.1 18:53:45 10° WSW 18:59:01 20° SSW 19:04:17 10° SSE visible
01 Aug 7.4 02:46:26 17° E 02:46:26 17° E 02:47:57 10° E visible
01 Aug 5.1 04:32:48 40° WSW 04:35:29 72° NNW 04:42:08 10° NE visible
02 Aug 5.5 03:35:43 60° E 03:35:43 60° E 03:41:15 10° ENE visible
02 Aug 6.2 05:22:06 11° W 05:28:02 31° NNW 05:33:42 10° NNE visible
02 Aug 7.3 18:47:19 10° SW 18:50:50 14° SSW 18:54:12 10° S visible
03 Aug 7.4 02:38:37 17° E 02:38:37 17° E 02:40:04 10° ENE visible
03 Aug 5.6 04:24:59 39° WNW 04:26:53 47° NNW 04:33:21 10° NE visible
04 Aug 5.9 03:27:51 48° NE 03:27:51 48° NE 03:32:43 10° NE visible
04 Aug 6.7 05:14:27 10° WNW 05:19:37 21° NNW 05:24:23 10° NNE visible
05 Aug 7.6 02:30:41 15° ENE 02:30:41 15° ENE 02:31:47 10° ENE visible
05 Aug 6.2 04:17:04 30° NW 04:18:21 31° NNW 04:24:18 10° NNE visible
06 Aug 6.5 03:19:53 33° NNE 03:19:53 33° NNE 03:23:53 10° NE visible
06 Aug 7.1 05:07:40 10° NW 05:11:19 14° NNW 05:14:36 10° N visible
07 Aug 7.8 02:22:39 12° NE 02:22:39 12° NE 02:23:11 10° NE visible
07 Aug 6.7 04:09:01 21° NW 04:09:54 21° NNW 04:14:58 10° NNE visible
08 Aug 7.0 03:11:46 23° NNE 03:11:46 23° NNE 03:14:49 10° NNE visible
